Regional Weather Roundup
Issued by NWS

Home | Current Version | Previous Version | Graphics & Text | Print | Product List | Glossary On
Versions: 1 2 3 4 5 6 7 8 9 10 11 12 13 14 15 16 17 18 19 20 21 22 23 24 25 26 27 28 29 30 31 32 33 34 35 36 37 38 39 40 41 42 43 44 45 46 47 48 49 50
000
ASUS43 KFSD 181110
RWRSD

WEATHER ROUNDUP FOR SOUTH DAKOTA
NATIONAL WEATHER SERVICE SIOUX FALLS SD
600 AM CDT THU SEP 18 2014

NOTE: "FAIR" INDICATES FEW OR NO CLOUDS BELOW 12,000 FEET WITH NO
SIGNIFICANT WEATHER AND/OR OBSTRUCTIONS TO VISIBILITY.


SDZ001>005-009-010-012>017-181200-
NORTHWEST AND NORTH CENTRAL SOUTH DAKOTA

CITY           SKY/WX    TMP DP  RH WIND       PRES   REMARKS
BUFFALO          N/A     55  50  83 E9        29.80F
FAITH            N/A     53  47  79 SE12      29.88F
MOBRIDGE       CLEAR     50  48  93 E9        29.90F
$$

SDZ012>016-024>037-041>051-057-063-072>074-181200-
SOUTHWEST AND SOUTH CENTRAL SOUTH DAKOTA

CITY           SKY/WX    TMP DP  RH WIND       PRES   REMARKS
RAPID CTY ARPT CLEAR     51  50  96 S3        29.89F FOG
PIERRE         CLOUDY    53  49  86 E8        29.90S
CUSTER         CLEAR     50  44  80 NW3       30.01F
ELLSWORTH AFB  CLEAR     54  52  91 S7        29.87F
PHILIP         CLEAR     52  49  89 E7        29.88F
PINE RIDGE     CLEAR     54  53  97 CALM      29.91F
WINNER         FAIR      59  55  87 SE10      29.92S
$$

SDZ004>011-016>023-039-040-181200-
NORTHEAST SOUTH DAKOTA

CITY           SKY/WX    TMP DP  RH WIND       PRES   REMARKS
ABERDEEN       CLEAR     44  44 100 N3        29.96F
WATERTOWN      CLEAR     54  49  83 SE5       29.98
SISSETON         N/A     42  42 100 CALM      29.98F
$$

SDZ017-020-022-023-036>040-048>070-181200-
SOUTHEAST SOUTH DAKOTA

CITY           SKY/WX    TMP DP  RH WIND       PRES   REMARKS
SIOUX FALLS    MOCLDY    55  52  89 E6        29.98S
HURON          CLEAR     53  50  89 SE3       29.95S
CHAMBERLAIN    MOCLDY    55  53  94 E7        29.93F
MITCHELL       CLEAR     50  50 100 E3        29.95F FOG
YANKTON        CLEAR     55  54  94 E7        29.96S
$$

ABBREVIATIONS USED IN REMARKS
   TC - TEMPERATURE IN CELSIUS
  WCI - WIND CHILL INDEX
   HX - HEAT INDEX
  VSB - VISIBILITY




USA.gov is the U.S. government's official web portal to all federal, state and local government web resources and services.